Location: Doschendorf
(50.0069°N, 11.0602°E)
Time: 20:47:23
(UTC+00:00)

Ariane Rocket - Pass Details

Date: 17 November 2019
Orbit: 759 x 771 km, 98.8° (Epoch: 06 December)

Event Time Altitude Azimuth Distance (km) Brightness Sun altitude
Exits shadow 17:40:34 45° 89° (E) 1,046 3.2 -20.8°
Maximum altitude 17:41:10 47° 67° (ENE) 1,014 3.2 -20.9°
Drops below altitude 10° 17:46:02 10° 355° (N) 2,316 5.5 -21.7°
Sets 17:48:24 0° 350° (N) 3,245 6.3 -22.0°
